Orbital Elements at Epoch 2459000.5 (2020-May-31.0) TDB
Reference: JPL 15 (heliocentric ecliptic J2000)
Element | Value | Uncertainty (1-sigma) | Units |
e | .1646619898521111 | 4.376e-08 | |
a | 2.322556609834148 | 9.9554e-09 | au |
q | 1.940119816914684 | 9.9332e-08 | au |
i | 7.396258142923652 | 5.575e-06 | deg |
node | 173.3839875791063 | 2.7343e-05 | deg |
peri | 136.1757748597948 | 3.3146e-05 | deg |
M | 220.7990545103681 | 2.2488e-05 | deg |
tp | 2459500.405107134147 (2021-Oct-12.90510713) | 8.2648e-05 | TDB |
period | 1292.849254258099 3.54 | 8.3125e-06 2.276e-08 | d yr |
n | .2784547377154082 | 1.7903e-09 | deg/d |
Q | 2.704993402753612 | 1.1595e-08 | au |
|
| | Orbit Determination Parameters
Additional Information
|